Météo par heure à Abaete

Ce jour, 29 Novembre, Dimanche

Heure Température Précipitation Vent Pression Humidité
00:00 +23°C° 0 mm 2 m/s 709 mmHg 79%
01:00 +21°C° 0 mm 2 m/s 709 mmHg 81%
02:00 +22°C° 0 mm 1 m/s 709 mmHg 84%
03:00 +21°C° 0 mm 1 m/s 708 mmHg 87%
04:00 +21°C° 0 mm 1 m/s 709 mmHg 87%
05:00 +21°C° 0 mm 1 m/s 709 mmHg 87%
06:00 +21°C° 0 mm 1 m/s 709 mmHg 87%
07:00 +23°C° 0 mm 2 m/s 710 mmHg 78%
08:00 +24°C° 0 mm 2 m/s 710 mmHg 69%
09:00 +26°C° 0 mm 3 m/s 711 mmHg 60%
10:00 +27°C° 0 mm 3 m/s 711 mmHg 55%
11:00 +29°C° 0 mm 3 m/s 711 mmHg 50%
12:00 +30°C° 0 mm 3 m/s 710 mmHg 45%
13:00 +30°C° 0 mm 3 m/s 710 mmHg 45%
14:00 +30°C° 0 mm 3 m/s 709 mmHg 46%
15:00 +30°C° 0 mm 3 m/s 708 mmHg 46%
16:00 +29°C° 0 mm 2 m/s 708 mmHg 51%
17:00 +28°C° 0 mm 2 m/s 708 mmHg 56%
18:00 +27°C° 0 mm 1 m/s 708 mmHg 61%
19:00 +26°C° 0 mm 1 m/s 708 mmHg 61%
20:00 +25°C° 0 mm 1 m/s 708 mmHg 62%
21:00 +22°C° 0 mm 0 m/s 709 mmHg 63%
22:00 +24°C° 0 mm 1 m/s 709 mmHg 67%
23:00 +24°C° 0 mm 1 m/s 709 mmHg 71%

Demain, 30 Novembre, Lundi

Heure Température Précipitation Vent Pression Humidité
00:00 +23°C° 0 mm 1 m/s 708 mmHg 75%
01:00 +23°C° 0 mm 1 m/s 708 mmHg 77%
02:00 +22°C° 0 mm 1 m/s 708 mmHg 80%
03:00 +22°C° 0 mm 1 m/s 707 mmHg 82%
04:00 +22°C° 0 mm 1 m/s 707 mmHg 83%
05:00 +22°C° 0 mm 1 m/s 707 mmHg 85%
06:00 +22°C° 0 mm 1 m/s 708 mmHg 86%
07:00 +23°C° 0 mm 1 m/s 708 mmHg 77%
08:00 +25°C° 0 mm 2 m/s 709 mmHg 69%
09:00 +27°C° 0 mm 2 m/s 709 mmHg 61%
10:00 +28°C° 0 mm 2 m/s 709 mmHg 56%
11:00 +30°C° 0 mm 2 m/s 709 mmHg 52%
12:00 +31°C° 0 mm 2 m/s 708 mmHg 48%
13:00 +31°C° 0 mm 2 m/s 708 mmHg 47%
14:00 +31°C° 0 mm 2 m/s 707 mmHg 47%
15:00 +31°C° 0 mm 2 m/s 707 mmHg 47%
16:00 +30°C° 0 mm 1 m/s 706 mmHg 51%
17:00 +29°C° 0 mm 1 m/s 706 mmHg 54%
18:00 +28°C° 0 mm 1 m/s 706 mmHg 58%
19:00 +27°C° 0 mm 1 m/s 706 mmHg 60%
20:00 +26°C° 0 mm 1 m/s 706 mmHg 63%
21:00 +25°C° 0 mm 1 m/s 706 mmHg 65%
22:00 +24°C° 0 mm 1 m/s 706 mmHg 68%
23:00 +22°C° 0 mm 0 m/s 706 mmHg 71%

Après-demain, 1 Décembre, Mardi

Heure Température Précipitation Vent Pression Humidité
00:00 +21°C° 0 mm 0 m/s 706 mmHg 74%
01:00 +21°C° 0 mm 0 m/s 706 mmHg 75%
02:00 +21°C° 0 mm 0 m/s 706 mmHg 77%
03:00 +20°C° 0 mm 0 m/s 705 mmHg 78%
04:00 +20°C° 0 mm 0 m/s 706 mmHg 80%
05:00 +22°C° 0 mm 1 m/s 706 mmHg 81%
06:00 +22°C° 0 mm 1 m/s 706 mmHg 82%
07:00 +24°C° 0 mm 1 m/s 707 mmHg 75%
08:00 +26°C° 0 mm 2 m/s 707 mmHg 68%
09:00 +29°C° 0 mm 3 m/s 708 mmHg 62%
10:00 +30°C° 0 mm 3 m/s 708 mmHg 56%
11:00 +31°C° 0 mm 3 m/s 707 mmHg 51%
12:00 +33°C° 0 mm 3 m/s 707 mmHg 46%
13:00 +33°C° 0 mm 3 m/s 706 mmHg 45%
14:00 +33°C° 0 mm 3 m/s 706 mmHg 45%
15:00 +33°C° 0 mm 3 m/s 705 mmHg 45%
16:00 +31°C° 0 mm 2 m/s 705 mmHg 50%
17:00 +30°C° 0 mm 2 m/s 705 mmHg 55%
18:00 +29°C° 0 mm 2 m/s 705 mmHg 60%
19:00 +28°C° 0 mm 2 m/s 705 mmHg 62%
20:00 +27°C° 0 mm 1 m/s 705 mmHg 63%
21:00 +26°C° 0 mm 1 m/s 705 mmHg 65%
22:00 +25°C° 0 mm 1 m/s 705 mmHg 67%
23:00 +25°C° 0 mm 1 m/s 705 mmHg 68%

2 Décembre, Mercredi

Heure Température Précipitation Vent Pression Humidité
00:00 +25°C° 0 mm 1 m/s 705 mmHg 70%
01:00 +24°C° 0 mm 1 m/s 705 mmHg 71%
02:00 +24°C° 0 mm 1 m/s 704 mmHg 72%
03:00 +23°C° 0 mm 1 m/s 704 mmHg 74%
04:00 +23°C° 0 mm 1 m/s 704 mmHg 75%
05:00 +23°C° 0 mm 1 m/s 705 mmHg 76%
06:00 +23°C° 0 mm 1 m/s 706 mmHg 77%
07:00 +25°C° 0 mm 1 m/s 706 mmHg 69%
08:00 +27°C° 0 mm 2 m/s 707 mmHg 61%
09:00 +29°C° 0 mm 2 m/s 707 mmHg 53%
10:00 +31°C° 0 mm 2 m/s 707 mmHg 49%
11:00 +33°C° 0 mm 3 m/s 707 mmHg 45%
12:00 +34°C° 0 mm 3 m/s 706 mmHg 41%
13:00 +34°C° 0 mm 3 m/s 706 mmHg 40%
14:00 +35°C° 0 mm 3 m/s 706 mmHg 40%
15:00 +35°C° 0 mm 3 m/s 705 mmHg 39%
16:00 +34°C° 0 mm 3 m/s 705 mmHg 45%
17:00 +31°C° 0 mm 2 m/s 705 mmHg 51%
18:00 +30°C° 0 mm 2 m/s 704 mmHg 57%
19:00 +29°C° 0.1 mm 2 m/s 705 mmHg 59%
20:00 +28°C° 0.1 mm 2 m/s 705 mmHg 61%
21:00 +27°C° 0.1 mm 2 m/s 705 mmHg 64%
22:00 +26°C° 0 mm 2 m/s 705 mmHg 66%
23:00 +26°C° 0 mm 2 m/s 705 mmHg 68%

3 Décembre, Jeudi

Heure Température Précipitation Vent Pression Humidité
00:00 +25°C° 0 mm 2 m/s 705 mmHg 70%
01:00 +25°C° 0.1 mm 1 m/s 705 mmHg 72%
02:00 +24°C° 0.1 mm 1 m/s 705 mmHg 74%
03:00 +24°C° 0.1 mm 1 m/s 704 mmHg 75%
04:00 +24°C° 0 mm 1 m/s 705 mmHg 76%
05:00 +22°C° 0 mm 0 m/s 705 mmHg 77%
06:00 +22°C° 0 mm 0 m/s 705 mmHg 78%
07:00 +26°C° 0 mm 1 m/s 706 mmHg 71%
08:00 +28°C° 0 mm 2 m/s 706 mmHg 64%
09:00 +29°C° 0 mm 3 m/s 707 mmHg 57%
10:00 +31°C° 0.1 mm 3 m/s 706 mmHg 53%
11:00 +33°C° 0.1 mm 4 m/s 706 mmHg 49%
12:00 +35°C° 0.1 mm 4 m/s 706 mmHg 44%
13:00 +34°C° 0 mm 4 m/s 705 mmHg 45%
14:00 +34°C° 0 mm 4 m/s 705 mmHg 46%
15:00 +34°C° 0 mm 3 m/s 704 mmHg 47%
16:00 +33°C° 0 mm 3 m/s 704 mmHg 52%
17:00 +31°C° 0 mm 2 m/s 704 mmHg 57%
18:00 +30°C° 0 mm 2 m/s 705 mmHg 62%
19:00 +28°C° 1.3 mm 2 m/s 705 mmHg 70%
20:00 +26°C° 1.3 mm 2 m/s 705 mmHg 78%
21:00 +24°C° 1.3 mm 2 m/s 706 mmHg 85%
22:00 +24°C° 0.5 mm 2 m/s 706 mmHg 86%
23:00 +24°C° 0.5 mm 1 m/s 706 mmHg 87%

4 Décembre, Vendredi

Heure Température Précipitation Vent Pression Humidité
00:00 +24°C° 0.5 mm 1 m/s 706 mmHg 88%
01:00 +23°C° 0 mm 1 m/s 706 mmHg 88%
02:00 +23°C° 0 mm 1 m/s 705 mmHg 89%
03:00 +23°C° 0 mm 1 m/s 705 mmHg 89%
04:00 +23°C° 0 mm 1 m/s 705 mmHg 89%
05:00 +23°C° 0 mm 1 m/s 705 mmHg 89%
06:00 +23°C° 0 mm 1 m/s 705 mmHg 89%
07:00 +25°C° 0 mm 1 m/s 706 mmHg 83%
08:00 +26°C° 0 mm 1 m/s 707 mmHg 76%
09:00 +28°C° 0 mm 1 m/s 707 mmHg 70%
10:00 +29°C° 0 mm 2 m/s 707 mmHg 63%
11:00 +31°C° 0 mm 2 m/s 707 mmHg 56%
12:00 +34°C° 0 mm 2 m/s 707 mmHg 49%
13:00 +34°C° 0 mm 2 m/s 706 mmHg 48%
14:00 +34°C° 0 mm 2 m/s 706 mmHg 46%
15:00 +35°C° 0 mm 2 m/s 705 mmHg 45%
16:00 +32°C° 0 mm 2 m/s 705 mmHg 51%
17:00 +31°C° 0 mm 2 m/s 705 mmHg 58%
18:00 +30°C° 0 mm 2 m/s 705 mmHg 64%
19:00 +28°C° 0.4 mm 2 m/s 705 mmHg 68%
20:00 +27°C° 0.4 mm 1 m/s 705 mmHg 72%
21:00 +26°C° 0.4 mm 1 m/s 705 mmHg 76%
22:00 +25°C° 0.9 mm 1 m/s 705 mmHg 80%
23:00 +25°C° 0.9 mm 2 m/s 706 mmHg 85%
Voir plus

Nous avons besoin de votre consentement

Meteoprog et ses fournisseurs de services peuvent stocker et accéder à des données personnelles telles que des cookies, des identifiants d'appareils ou d'autres technologies similaires sur votre appareil et traiter ces données pour personnaliser le contenu et les publicités, ainsi que pour fournir des fonctionnalités de médias sociaux et analyser le trafic.

  • Stocker et/ou accéder à des informations sur votre appareil

    Des cookies, des identifiants d'appareils ou d'autres informations peuvent être stockés ou accessibles sur votre appareil aux fins indiquées ci-dessus.

  • Annonces et contenus personnalisés, mesure des annonces et des contenus, connaissance de l'audience et développement de produits

    Les annonces et le contenu peuvent être personnalisés en fonction d'un profil. D'autres données peuvent être ajoutées pour mieux personnaliser les annonces et le contenu. Les performances des publicités et du contenu peuvent être mesurées. Il est possible d'obtenir des informations sur le public qui a vu les publicités et le contenu. Ces données peuvent être utilisées pour développer ou améliorer l'expérience de l'utilisateur, les systèmes et les logiciels.

En cliquant sur "J'accepte", vous autorisez l'utilisation de cookies, des identifiants d'appareils, des balises web ou d'autres technologies similaires. Vos paramètres peuvent être modifiés dans le navigateur de votre appareil.

Dans certains cas, des intérêts légitimes peuvent être invoqués plutôt qu'un consentement. Vous pouvez en savoir plus à ce sujet dans notre Politique de confidentialité et de cookies.